Location: Penticton
(49.5000°N, 119.5830°W)
Time: 10:51:18
(UTC-08:00)

Daily predictions for brighter satellites

Satellite Brightness Start Highest point End
(mag) Time Altitude Azimuth Time Altitude Azimuth Time Altitude Azimuth
Cosmos 1674 Rocket 3.7 17:54:28 10° N 17:58:45 51° ENE 18:02:58 10° SSE
ATLAS 3B R/B 3.0 17:54:35 10° SW 18:01:47 75° NW 18:08:43 10° NE
SPOT 3 Rocket 3.6 17:56:52 10° SSE 18:01:59 60° ENE 18:07:09 10° N
MOS 1-B Rocket 3.9 17:56:21 10° SSE 18:02:31 82° ENE 18:08:11 10° NNW
Cosmos 2333 Rocket 4.1 17:57:44 10° NW 18:02:51 35° WSW 18:07:55 10° S
Aureole 3 4.3 17:58:31 10° SSE 18:03:39 40° E 18:07:46 10° NNE
Cosmos 921 Rocket 3.8 18:01:34 10° N 18:05:44 34° ENE 18:09:51 10° SE
Cosmos 405 3.2 18:03:39 10° S 18:07:01 46° E 18:10:25 10° NNE
NOSS 3-2 (A) 3.5 18:01:00 10° SW 18:07:01 82° SE 18:13:48 10° NE
Cosmos 2082 3.8 18:02:52 10° S 18:08:20 56° ESE 18:13:52 10° NE
Cosmos 1420 Rocket 4.0 18:03:14 10° NNW 18:08:31 66° ENE 18:13:47 10° SSE
Meteor 1-18 Rocket 4.4 18:03:52 10° N 18:09:19 49° ENE 18:14:42 10° SSE
Tiangong 2 4.0 18:07:56 10° SW 18:09:22 12° SSW 18:10:46 10° S
Cosmos 2285 Rocket 4.1 18:04:17 10° SSW 18:10:39 89° ESE 18:17:06 10° NNE
Cosmos 1908 Rocket 4.4 18:08:14 10° SSE 18:12:09 31° E 18:16:05 10° NNE
YAOGAN 1 3.5 18:09:40 10° S 18:13:55 54° W 18:18:11 10° NNW
FREGAT/IRIS 3.3 18:13:01 10° SE 18:15:41 31° ENE 18:18:23 10° N
Cosmos 2084 Rocket 3.5 18:11:54 10° SW 18:16:15 80° NW 18:20:24 10° NE
EO 1 Del DPAF 3.7 18:13:08 10° NNE 18:16:46 39° E 18:20:22 10° S
Cosmos 1733 Rocket 3.0 18:13:14 10° S 18:17:32 75° E 18:21:52 10° NNE
Cosmos 2034 Rocket 4.3 18:13:21 10° N 18:19:29 46° ENE 18:25:34 10° SE
Cosmos 1437 Rocket 4.1 18:19:21 10° SE 18:22:27 21° E 18:25:35 10° NE
Meteor 1-25 Rocket 4.4 18:17:22 10° SSE 18:22:38 47° E 18:27:59 10° NNE
Cosmos 44 Rocket 3.6 18:17:45 10° NW 18:22:47 78° SW 18:27:53 10° SSE
Landsat 4 3.7 18:20:51 10° NNE 18:24:34 59° ESE 18:28:16 10° S
USA 238 DEB 4.3 18:17:56 10° WSW 18:24:44 59° NW 18:31:41 10° NE
USA 238 4.3 18:18:01 10° WSW 18:24:50 59° NW 18:31:47 10° NE
SKYMED 2 3.7 18:20:50 10° NNE 18:25:12 82° WNW 18:29:33 10° SSW
MTI 3.7 18:29:15 10° NNE 18:32:28 89° WNW 18:35:40 10° SSW
Cosmos 1975 Rocket 3.5 18:30:12 10° N 18:34:23 39° ENE 18:38:33 10° SE
SeaSat 1 2.7 18:31:08 10° SE 18:35:52 49° NE 18:40:38 10° NNW
Cosmos 1184 Rocket 4.5 18:34:13 10° NNE 18:36:16 16° ENE 18:36:16 16° ENE
Cosmos 1939 Rocket 4.1 18:40:06 18° E 18:41:43 23° ENE 18:44:57 10° NNE
USA 215 4.1 18:40:20 15° ENE 18:44:41 29° SE 18:50:13 10° S
HJ-1C 3.4 18:41:37 10° SSE 18:44:58 56° ENE 18:48:21 10° N
Envisat 3.3 18:40:16 10° SE 18:45:06 46° ENE 18:49:57 10° N
SL-8 R/B 4.2 18:40:55 10° SW 18:45:28 45° SSE 18:48:21 21° E
Resurs 01 Rocket 2.5 18:43:36 16° ESE 18:46:17 29° ENE 18:50:06 10° N
Thor Agena Rocket 4.1 18:43:30 10° NNE 18:48:10 34° E 18:52:45 10° SSE
ALOS 4.0 18:44:08 10° SSW 18:48:26 36° W 18:52:46 10° NNW
YAOGAN 6 3.9 18:49:04 22° ENE 18:49:10 22° ENE 18:51:59 10° NNE
COSMOS 2455 4.2 18:45:26 10° SE 18:48:53 17° ESE 18:48:53 17° ESE
CZ-4C R/B 3.2 18:44:18 10° NW 18:50:46 46° NE 18:55:55 19° E
Cosmos 1943 3.7 18:46:23 10° NNW 18:51:40 38° NE 18:55:02 20° ESE
FengYun 1-2 T 4.3 18:48:02 10° SSE 18:53:33 80° WSW 18:59:04 10° NNW
Cosmos 1110 Rocket 4.2 18:49:51 10° NNW 18:55:02 52° ENE 18:59:34 13° SE
Cosmos 1378 Rocket 3.9 18:52:11 10° NNW 18:56:34 70° W 19:00:58 10° S
Cosmos 1269 Rocket 4.3 18:52:11 10° S 18:57:12 46° ESE 19:02:15 10° NNE
USA 32 4.0 18:52:29 10° S 18:57:39 65° E 19:02:50 10° NNE
DNEPR-1 R/B 4.2 18:54:58 10° WSW 18:59:05 53° NW 19:03:34 10° NE
USA 186 2.4 18:59:32 34° E 18:59:51 35° ENE 19:02:56 10° N
ATLAS CENTAUR R/B 2.2 18:57:24 10° NNW 19:01:09 33° NE 19:02:24 28° ENE
NOSS 3-2 (C) 3.8 18:55:07 10° SW 19:01:11 69° NW 19:08:03 10° NE
Cosmos 1633 2.9 18:59:42 10° SSW 19:03:15 67° W 19:06:50 10° N
Cosmos 1536 Rocket 4.5 19:00:56 10° N 19:04:44 27° ENE 19:04:48 27° ENE
SJ-6B 2.7 19:03:27 10° SSE 19:07:15 90° WSW 19:11:10 10° NNW
Cosmos 2227 Rocket 3.2 19:03:36 10° SW 19:09:02 47° NW 19:14:32 10° NNE
H-2A R/B 4.3 19:05:30 10° SSW 19:09:11 39° W 19:12:53 10° NNW
Cosmos 1782 Rocket 3.5 19:05:30 10° S 19:09:53 67° E 19:14:18 10° NNE
SL-16 R/B 3.5 19:05:20 10° NW 19:10:36 41° WSW 19:15:51 10° S
ERS-2 3.3 19:10:31 10° S 19:14:02 44° W 19:17:37 10° NNW
Sich 1 Rocket 3.6 19:11:47 10° SSW 19:16:17 83° W 19:20:46 10° N
Okean 1 4.0 19:14:10 10° NNW 19:18:06 54° W 19:21:58 10° S
Tsikada Rocket 4.0 19:13:30 10° S 19:19:52 70° E 19:26:15 10° NNE
H-2A R/B 3.7 19:21:14 18° NE 19:21:14 18° NE 19:24:10 10° NNE
USA 267 3.3 19:17:24 28° E 19:21:04 67° NNE 19:27:32 10° WNW
CENTAUR R/B 2.5 19:16:02 10° SW 19:22:13 84° SE 19:29:18 10° NE
Cosmos 2297 Rocket 3.3 19:17:27 10° SW 19:22:49 43° NW 19:28:15 10° NNE
CRYOSAT 2 4.2 19:18:13 10° N 19:23:08 83° E 19:28:00 10° S
Meteor 1-13 Rocket 4.0 19:19:20 10° N 19:24:55 80° ENE 19:30:25 10° SSE
Iridium 4 Rocket 4.2 19:21:49 10° NNW 19:26:37 49° W 19:30:58 10° SSW
Cosmos 1331 Rocket 3.9 19:21:37 10° NNW 19:26:58 81° ENE 19:30:18 23° SSE
CZ-2D R/B 3.7 19:25:07 10° S 19:28:59 62° W 19:32:52 10° NNW
Cosmos 1603 3.8 19:23:47 10° NNW 19:29:28 78° WSW 19:34:01 16° SSE
Okean 2 Rocket 2.9 19:26:15 10° S 19:30:37 68° E 19:35:01 10° NNE
Spot 2 Rocket 3.4 19:32:44 34° SE 19:34:55 66° ENE 19:39:58 10° N
Cosmos 1048 Rocket 4.3 19:34:45 10° SSW 19:40:03 68° WNW 19:45:19 10° NNE
Cosmos 1602 3.9 19:36:14 10° SSW 19:40:08 70° W 19:44:02 10° N
Cosmos 2263 Rocket 4.2 19:46:16 10° S 19:46:47 13° S 19:46:47 13° S
ATLAS 3B R/B 4.2 19:47:24 10° W 19:53:33 31° NNW 19:58:54 12° NE
Cosmos 1302 Rocket 3.8 19:51:39 10° NNW 19:56:54 83° ENE 19:57:34 68° SE
Cosmos 2279 Rocket 3.9 19:52:00 10° N 19:58:11 61° ENE 19:58:59 56° ESE
Cosmos 1437 Rocket 4.2 19:54:39 10° SW 19:58:29 39° WNW 20:02:23 10° N
Meteor 2-4 Rocket 4.2 19:59:16 10° NNW 20:05:02 62° W 20:09:40 15° S
Resurs 1-3 4.4 20:06:32 34° SSW 20:08:05 49° W 20:12:22 10° NNW
SJ-11-01 4.5 20:08:13 58° SSW 20:08:57 69° WSW 20:13:43 10° NNW
ARGOS 3.8 20:10:22 41° NNE 20:10:22 41° NNE 20:14:17 10° N
Meteor 1-5 Rocket 4.2 20:06:38 10° S 20:12:33 82° E 20:18:34 10° NNE
Cosmos 2227 4.3 20:07:27 10° SW 20:13:11 73° WNW 20:17:14 20° NNE
SeaSat 1 4.1 20:09:52 13° SSW 20:13:33 31° WSW 20:17:56 10° NW
Meteor 1-11 Rocket 3.9 20:10:32 10° SSW 20:16:07 70° WNW 20:21:52 10° N
Cosmos 1939 Rocket 4.0 20:16:00 40° WSW 20:16:26 42° W 20:20:22 10° NNW
Cosmos 1634 Rocket 4.3 20:11:17 10° NNW 20:17:24 64° W 20:21:38 21° S
Resurs 01 Rocket 3.0 20:21:10 28° SW 20:22:40 36° W 20:26:47 10° NNW
Cosmos 2082 Rocket 4.4 20:22:09 10° N 20:24:14 13° NNE 20:24:14 13° NNE
USA 215 3.1 20:27:42 74° E 20:28:19 82° SE 20:34:53 10° SW
NOAA 11 4.4 20:31:45 66° WSW 20:31:55 66° WSW 20:37:21 10° NNW
COSMOS 2455 3.5 20:28:15 10° SSW 20:32:11 44° SSW 20:32:11 44° SSW
Cosmos 1943 4.1 20:30:28 10° NW 20:35:48 44° WSW 20:36:54 39° SW
COSMOS 2406 4.4 20:32:01 10° NNW 20:35:31 31° N 20:35:31 31° N
CZ-4C R/B 3.1 20:32:48 10° NW 20:39:47 66° SW 20:41:09 56° S
ATLAS CENTAUR R/B 3.3 20:36:16 10° NW 20:38:41 29° WNW 20:38:41 29° WNW
H-2A R/B 3.5 21:01:52 33° NNW 21:01:52 33° NNW 21:04:46 10° NNW
USA 267 3.7 21:04:45 53° WSW 21:04:45 53° WSW 21:10:38 10° WNW
CENTAUR R/B 3.9 21:07:42 10° W 21:13:43 37° NNW 21:16:31 28° NNE
ATLAS 3B R/B 4.3 21:40:52 10° NW 21:46:10 24° N 21:46:10 24° N
